Other Surface Observations
Issued by NWS Charleston, SC

Home | Current Version | Previous Version | Text Only | Print | Product List | Glossary On
Versions: 1 2 3 4 5 6 7 8 9 10 11 12 13 14 15 16 17 18 19 20 21 22 23 24 25 26 27 28 29 30 31 32 33 34 35 36 37 38 39 40 41 42 43 44 45 46 47 48 49 50
302
SXUS52 KCHS 150927
OSOCHS

Marine Observations
National Weather Service Charleston SC
500 AM EDT TUE OCT 15 2019

...Downtown Charleston and Harbor...

CITY           SKY/WX    TMP DP  RH WIND       PRES   REMARKS
Waterfront Prk   N/A     72  71  97 VRB3      29.90F

...Lake Moultrie...

CITY           SKY/WX    TMP DP  RH WIND       PRES   REMARKS
Pinopolis        N/A     68  63  83 CALM      29.98S

...Lake and Supplemental Coastal Observations...

STATION/POSITION TIME  TEMP    WIND        PRES    WAVE   SWELL
                       AIR SEA DIR/SP/G            HT/PER HT/PER/DIR
                 (UTC) (F)     (DEG/KT/KT) (MB)    (FT/S) (FT/S/D)
Chrlstn Harbor   0842   72 77  350/  2/  3 1018.2S
Fort Pulaski     0842   74 77   CALM  /  1 1018.0F
Sapelo Island    0900   72     350/  3     1018.0
Winyah Bay       0845   63     330/  3     1018.0S
Lake Murray      0920   60      CALM  /  2 1018.6R
ACE Basin NERRS  0830   69        CALM     1018.0S


...C-MAN and Buoy Observations...

STATION/POSITION TIME  TEMP    WIND        PRES    WAVE   SWELL
                       AIR SEA DIR/SP/G            HT/PER HT/PER/DIR
                 (UTC) (F)     (DEG/KT/KT) (MB)    (FT/S) (FT/S/D)
Buoy 41004       0910      81   30/  2/  4 1017.7
Buoy 41008       0850   79 79  240/  6/  6 1017.4F   2/11   2/ 90/11
Folly Beach CMAN 0900   74      10/  3/  4 1018.5S
Pritchards Islan NOT AVBL
Capers NS Buoy   0908   73 76   30/  6/  8 1018.6S
Fripp NS Buoy    0908   76 77  120/  4/  6 1018.5F
5E St. Marys GA  0900      79                N/A     2/11   2/ 80/11


STATION/POSITION TIME  TEMP    WIND        PRES    WAVE   SWELL
                       AIR SEA DIR/SP/G            HT/PER HT/PER/DIR
                 (UTC) (F)     (DEG/KT/KT) (MB)    (FT/S) (FT/S/D)
Frying Pan Buoy  0910   75 80   20/  8/ 12 1018.0
Buoy 41025       0910   72 73   10/ 14/ 16 1017.8
Cape Lookout NC  0900   69      10/  7/  8 1018.5F
Buoy 41002       0910   77     250/  6/  8 1018.1
Buoy 41010       0910   78 80   40/  2/  4   N/A
St Augustine FL  0900   74 80  240/  5/  6 1017.8S

$$




USA.gov is the U.S. government's official web portal to all federal, state and local government web resources and services.